KC7WRB Weather Reports


time (UTC)temp
C
wind
direction
speed
KPH
gust
KPH
rain 1hr
cm
rain 24hr
cm
rain mn
cm
humidity
%
barometer
mb
20260507010508 23 192 1.6 3.2 0.00 0.00 0.00 23 1019.4
20260507010005 23 194 6.4 6.4 0.00 0.00 0.00 24 1019.3
20260507005503 23 147 3.2 3.2 0.00 0.00 0.00 23 1019.5
20260507004959 23 170 4.8 6.4 0.00 0.00 0.00 24 1019.3
20260507004455 23 151 1.6 1.6 0.00 0.00 0.00 23 1019.7
20260507003954 23 98 9.7 11.3 0.00 0.00 0.00 25 1019.5
20260507003448 23 75 1.6 4.8 0.00 0.00 0.00 25 1019.5
20260507002944 23 85 3.2 4.8 0.00 0.00 0.00 24 1019.5
20260507002441 23 96 6.4 6.4 0.00 0.00 0.00 24 1019.4
20260507001937 23 96 4.8 6.4 0.00 0.00 0.00 24 1019.7
20260507001434 23 170 3.2 3.2 0.00 0.00 0.00 23 1019.4
20260507000932 23 105 0.0 1.6 0.00 0.00 0.00 24 1019.4
20260507000427 23 52 9.7 11.3 0.00 0.00 0.00 24 1019.5
20260506235923 23 85 3.2 6.4 0.00 0.00 0.00 24 1019.3
20260506235420 23 106 3.2 4.8 0.00 0.00 0.00 24 1019.3
20260506234915 23 93 3.2 3.2 0.00 0.00 0.00 22 1019.3
20260506234414 23 43 4.8 6.4 0.00 0.00 0.00 22 1019.4
20260506233911 23 116 3.2 4.8 0.00 0.00 0.00 25 1019.7
20260506233407 23 84 8.0 11.3 0.00 0.00 0.00 27 1019.5
20260506232904 23 95 6.4 9.7 0.00 0.00 0.00 26 1019.4
20260506232400 23 155 3.2 3.2 0.00 0.00 0.00 26 1019.7
20260506231856 23 64 3.2 4.8 0.00 0.00 0.00 25 1019.7
20260506231354 23 69 3.2 4.8 0.00 0.00 0.00 27 1019.8
20260506230851 23 87 4.8 4.8 0.00 0.00 0.00 25 1019.8
20260506230348 23 8 9.7 11.3 0.00 0.00 0.00 25 1019.9
20260506225844 23 329 3.2 3.2 0.00 0.00 0.00 26 1020.1
20260506225341 23 128 0.0 1.6 0.00 0.00 0.00 26 1020.0
20260506224838 23 152 6.4 6.4 0.00 0.00 0.00 28 1020.0
20260506224336 23 114 6.4 6.4 0.00 0.00 0.00 24 1020.1
20260506223832 23 24 9.7 12.9 0.00 0.00 0.00 25 1020.2
20260506223327 23 70 3.2 4.8 0.00 0.00 0.00 25 1020.1
20260506222825 23 96 9.7 12.9 0.00 0.00 0.00 27 1020.1
20260506222320 23 106 17.7 17.7 0.00 0.00 0.00 28 1020.3
20260506221818 23 85 9.7 12.9 0.00 0.00 0.00 27 1020.2
20260506221316 22 80 4.8 6.4 0.00 0.00 0.00 26 1020.2
20260506220813 22 82 9.7 11.3 0.00 0.00 0.00 28 1020.7
20260506220314 22 83 6.4 11.3 0.00 0.00 0.00 26 1020.6
20260506215810 22 62 12.9 17.7 0.00 0.00 0.00 31 1020.5
20260506215307 22 89 6.4 9.7 0.00 0.00 0.00 29 1020.5
20260506214803 22 109 6.4 6.4 0.00 0.00 0.00 28 1020.6
20260506214300 22 96 11.3 12.9 0.00 0.00 0.00 27 1021.0
20260506213758 22 106 1.6 3.2 0.00 0.00 0.00 28 1020.9
20260506213254 22 81 6.4 12.9 0.00 0.00 0.00 30 1020.9
20260506212752 22 93 11.3 14.5 0.00 0.00 0.00 31 1021.0
20260506212247 22 46 3.2 4.8 0.00 0.00 0.00 29 1021.2
20260506211743 23 65 6.4 6.4 0.00 0.00 0.00 31 1020.9
20260506211239 22 346 11.3 12.9 0.00 0.00 0.00 27 1020.9
20260506210737 22 119 4.8 4.8 0.00 0.00 0.00 28 1020.9
20260506210233 22 81 1.6 3.2 0.00 0.00 0.00 30 1021.2
20260506205730 22 44 6.4 9.7 0.00 0.00 0.00 32 1021.2
20260506205226 22 296 4.8 4.8 0.00 0.00 0.00 29 1021.0
20260506204717 22 62 8.0 9.7 0.00 0.00 0.00 33 1021.2
20260506204214 22 15 4.8 6.4 0.00 0.00 0.00 32 1020.9
20260506203712 21 211 1.6 1.6 0.00 0.00 0.00 32 1021.2
20260506203210 21 298 4.8 6.4 0.00 0.00 0.00 33 1021.0
20260506202707 21 67 1.6 3.2 0.00 0.00 0.00 34 1021.4
20260506202203 21 327 9.7 14.5 0.00 0.00 0.00 35 1021.2
20260506201700 21 94 9.7 11.3 0.00 0.00 0.00 38 1021.2
20260506201156 21 102 9.7 12.9 0.00 0.00 0.00 39 1021.3
20260506200653 21 78 11.3 14.5 0.00 0.00 0.00 39 1021.4
20260506200150 21 119 9.7 14.5 0.00 0.00 0.00 38 1021.4
20260506195647 21 57 3.2 6.4 0.00 0.00 0.00 42 1021.4
20260506195143 21 104 9.7 11.3 0.00 0.00 0.00 40 1021.4
20260506194640 20 123 0.0 1.6 0.00 0.00 0.00 40 1021.3
20260506194136 21 72 3.2 4.8 0.00 0.00 0.00 38 1021.5
20260506193634 21 108 1.6 3.2 0.00 0.00 0.00 40 1021.6
20260506193131 21 126 4.8 6.4 0.00 0.00 0.00 37 1021.7
20260506192628 20 52 1.6 3.2 0.00 0.00 0.00 37 1021.8
20260506192124 20 261 6.4 6.4 0.00 0.00 0.00 38 1021.7
20260506191621 20 130 1.6 3.2 0.00 0.00 0.00 41 1022.0
20260506191117 20 223 1.6 3.2 0.00 0.00 0.00 40 1022.0
20260506190615 20 7 9.7 11.3 0.00 0.00 0.00 40 1021.8
20260506190111 20 0 14.5 16.1 0.00 0.00 0.00 44 1022.0
20260506185608 20 128 3.2 3.2 0.00 0.00 0.00 44 1022.0
20260506185104 19 268 6.4 6.4 0.00 0.00 0.00 42 1022.1
20260506184602 20 350 16.1 17.7 0.00 0.00 0.00 42 1022.0
20260506184059 20 327 9.7 12.9 0.00 0.00 0.00 42 1021.8
20260506183555 20 351 8.0 9.7 0.00 0.00 0.00 41 1022.1
20260506183051 19 257 4.8 4.8 0.00 0.00 0.00 41 1022.1
20260506182549 19 286 4.8 4.8 0.00 0.00 0.00 44 1022.2
20260506182046 19 18 6.4 6.4 0.00 0.00 0.00 43 1022.0
20260506181544 19 52 1.6 4.8 0.00 0.00 0.00 46 1022.1
20260506181041 18 98 3.2 4.8 0.00 0.00 0.00 45 1022.0
20260506180537 18 53 6.4 11.3 0.00 0.00 0.00 44 1022.1
20260506180034 18 120 4.8 6.4 0.00 0.00 0.00 44 1021.8
20260506175531 18 114 3.2 6.4 0.00 0.00 0.00 44 1022.1
20260506175027 18 103 4.8 4.8 0.00 0.00 0.00 43 1022.0
20260506174526 18 145 0.0 1.6 0.00 0.00 0.00 48 1022.1
20260506174021 18 307 0.0 0.0 0.00 0.00 0.00 40 1022.0
20260506173519 18 214 1.6 1.6 0.00 0.00 0.00 46 1022.1
20260506173016 18 235 3.2 3.2 0.00 0.00 0.00 43 1021.8
20260506172514 17 308 4.8 6.4 0.00 0.00 0.00 50 1022.1
20260506172009 17 202 1.6 1.6 0.00 0.00 0.00 56 1022.1
20260506171507 17 264 6.4 6.4 0.00 0.00 0.00 56 1021.8
20260506171004 17 232 3.2 4.8 0.00 0.00 0.00 56 1021.8
20260506170502 17 285 6.4 6.4 0.00 0.00 0.00 54 1021.7
20260506165959 16 156 0.0 0.0 0.00 0.00 0.00 54 1021.8
20260506165458 16 217 0.0 0.0 0.00 0.00 0.00 56 1021.7
20260506164953 17 256 4.8 4.8 0.00 0.00 0.00 56 1022.0
20260506164450 16 200 1.6 3.2 0.00 0.00 0.00 62 1021.8
20260506163948 16 205 1.6 3.2 0.00 0.00 0.00 56 1021.7
20260506163443 16 219 0.0 0.0 0.00 0.00 0.00 58 1021.7
20260506162938 15 180 1.6 1.6 0.00 0.00 0.00 59 1021.6
20260506162436 16 245 4.8 4.8 0.00 0.00 0.00 59 1021.6
20260506161933 16 17 1.6 3.2 0.00 0.00 0.00 58 1021.5
20260506161431 15 133 0.0 0.0 0.00 0.00 0.00 62 1021.4
20260506160928 14 250 3.2 3.2 0.00 0.00 0.00 63 1021.4
20260506160426 13 353 0.0 0.0 0.00 0.00 0.00 67 1021.5
20260506155923 13 319 4.8 4.8 0.00 0.00 0.00 64 1021.4
20260506155421 13 0 3.2 3.2 0.00 0.00 0.00 68 1021.4
20260506153542 12 289 3.2 4.8 0.00 0.00 0.00 63 1021.3
20260506153039 12 330 3.2 3.2 0.00 0.00 0.00 69 1021.0
20260506152536 12 357 3.2 3.2 0.00 0.00 0.00 68 1021.2
20260506152035 12 208 1.6 1.6 0.00 0.00 0.00 70 1021.3
20260506151532 12 128 0.0 0.0 0.00 0.00 0.00 69 1021.3
20260506151029 12 110 1.6 1.6 0.00 0.00 0.00 72 1021.2
20260506150526 11 134 0.0 0.0 0.00 0.00 0.00 76 1021.2
20260506150023 11 73 1.6 1.6 0.00 0.00 0.00 75 1021.0
20260506145519 10 81 1.6 1.6 0.00 0.00 0.00 77 1021.3
20260506145017 9 76 0.0 1.6 0.00 0.00 0.00 83 1021.3
20260506144513 8 78 1.6 3.2 0.00 0.00 0.00 86 1021.0
20260506144011 8 96 1.6 1.6 0.00 0.00 0.00 86 1021.2
20260506143508 8 83 0.0 1.6 0.00 0.00 0.00 86 1021.2
20260506143007 8 92 3.2 3.2 0.00 0.00 0.00 86 1021.0
20260506142504 8 101 3.2 3.2 0.00 0.00 0.00 86 1020.8
20260506142002 8 121 3.2 4.8 0.00 0.00 0.00 84 1020.8
20260506141459 10 133 3.2 3.2 0.00 0.00 0.00 77 1020.7
20260506140958 10 151 0.0 0.0 0.00 0.00 0.00 80 1020.6
20260506140454 9 150 0.0 0.0 0.00 0.00 0.00 85 1020.5
20260506135951 8 151 1.6 1.6 0.00 0.00 0.00 85 1020.8
20260506135449 8 152 1.6 1.6 0.00 0.00 0.00 87 1020.3
20260506134944 7 239 0.0 0.0 0.00 0.00 0.00 91 1020.7
20260506134440 6 239 0.0 0.0 0.00 0.00 0.00 92 1020.5
20260506133937 6 240 1.6 1.6 0.00 0.00 0.00 92 1020.3
20260506133435 5 256 3.2 3.2 0.00 0.00 0.00 93 1020.2
20260506132931 5 251 3.2 3.2 0.00 0.00 0.00 92 1020.1
20260506132428 5 248 3.2 3.2 0.00 0.00 0.00 92 1020.2
20260506131926 5 184 0.0 0.0 0.00 0.00 0.00 93 1020.0
20260506131422 5 182 0.0 0.0 0.00 0.00 0.00 92 1019.8
20260506130919 5 183 0.0 0.0 0.00 0.00 0.00 92 1019.7
20260506130416 5 183 0.0 0.0 0.00 0.00 0.00 91 1019.8
20260506125914 5 206 0.0 0.0 0.00 0.00 0.00 92 1019.7
20260506125412 5 238 1.6 1.6 0.00 0.00 0.00 92 1019.3
20260506124910 5 239 1.6 1.6 0.00 0.00 0.00 92 1019.3
20260506124407 5 240 3.2 3.2 0.00 0.00 0.00 92 1019.2
20260506123905 5 246 3.2 3.2 0.00 0.00 0.00 92 1019.4
20260506123402 5 266 3.2 4.8 0.00 0.00 0.00 90 1019.1
20260506122859 5 261 4.8 4.8 0.00 0.00 0.00 86 1018.9
20260506122356 6 60 1.6 1.6 0.00 0.00 0.00 85 1019.1
20260506121855 6 57 1.6 3.2 0.00 0.00 0.00 85 1019.1
20260506121351 6 53 1.6 1.6 0.00 0.00 0.00 85 1019.0
20260506120848 6 77 1.6 1.6 0.00 0.00 0.00 87 1019.0
20260506120346 6 135 1.6 1.6 0.00 0.00 0.00 88 1018.9
20260506115843 6 136 0.0 0.0 0.00 0.00 0.00 89 1018.7
20260506115341 6 137 0.0 0.0 0.00 0.00 0.00 88 1019.0
20260506114839 6 169 0.0 0.0 0.00 0.00 0.00 88 1018.9
20260506114336 6 170 0.0 0.0 0.00 0.00 0.00 89 1018.4
20260506113835 6 169 0.0 0.0 0.00 0.00 0.00 88 1018.5
20260506113332 7 169 0.0 0.0 0.00 0.00 0.00 85 1018.6
20260506112829 8 170 0.0 0.0 0.00 0.00 0.00 82 1018.4
20260506112326 7 169 3.2 3.2 0.00 0.00 0.00 85 1018.3
20260506111823 7 198 1.6 1.6 0.00 0.00 0.00 87 1018.4
20260506111321 7 199 1.6 1.6 0.00 0.00 0.00 87 1018.3
20260506110819 6 198 0.0 0.0 0.00 0.00 0.00 89 1018.2
20260506110315 6 199 1.6 1.6 0.00 0.00 0.00 88 1018.4
20260506105812 7 198 0.0 0.0 0.00 0.00 0.00 88 1018.4
20260506105309 7 200 1.6 1.6 0.00 0.00 0.00 88 1018.3
20260506104806 7 154 3.2 3.2 0.00 0.00 0.00 89 1018.0
20260506104304 6 218 1.6 1.6 0.00 0.00 0.00 89 1018.2
20260506103801 6 248 3.2 3.2 0.00 0.00 0.00 88 1018.0
20260506103259 7 243 3.2 3.2 0.00 0.00 0.00 85 1017.7
20260506102756 7 258 3.2 3.2 0.00 0.00 0.00 84 1017.8
20260506102254 8 200 1.6 3.2 0.00 0.00 0.00 82 1017.9
20260506101751 8 199 0.0 0.0 0.00 0.00 0.00 80 1017.7
20260506101247 8 199 0.0 1.6 0.00 0.00 0.00 80 1017.7
20260506100745 8 198 1.6 1.6 0.00 0.00 0.00 81 1017.7
20260506100243 8 199 1.6 1.6 0.00 0.00 0.00 82 1017.6
20260506095741 8 264 3.2 4.8 0.00 0.00 0.00 80 1017.6
20260506095238 7 233 4.8 6.4 0.00 0.00 0.00 86 1017.5
20260506094734 7 232 4.8 4.8 0.00 0.00 0.00 85 1017.5
20260506094233 8 251 4.8 4.8 0.00 0.00 0.00 82 1017.5
20260506093731 8 276 6.4 6.4 0.00 0.00 0.00 82 1017.1
20260506093228 8 253 4.8 4.8 0.00 0.00 0.00 80 1017.1
20260506092726 9 275 4.8 4.8 0.00 0.00 0.00 75 1017.0
20260506092223 9 203 4.8 4.8 0.00 0.00 0.00 75 1017.1
20260506091721 9 188 1.6 3.2 0.00 0.00 0.00 76 1016.9
20260506091218 8 199 4.8 6.4 0.00 0.00 0.00 78 1017.5
20260506090716 8 194 3.2 3.2 0.00 0.00 0.00 80 1017.0
20260506090212 8 195 0.0 0.0 0.00 0.00 0.00 80 1017.1
20260506085709 8 196 0.0 0.0 0.00 0.00 0.00 79 1017.4
20260506085205 8 187 1.6 1.6 0.00 0.00 0.00 78 1017.2
20260506084702 9 152 3.2 3.2 0.00 0.00 0.00 77 1017.1
20260506084158 8 197 1.6 1.6 0.00 0.00 0.00 78 1017.0
20260506083655 9 160 3.2 3.2 0.00 0.00 0.00 77 1017.1
20260506083153 9 184 1.6 1.6 0.00 0.00 0.00 78 1017.1
20260506082651 8 216 3.2 3.2 0.00 0.00 0.00 79 1016.9
20260506082150 9 222 1.6 1.6 0.00 0.00 0.00 78 1017.0
20260506081649 8 189 4.8 4.8 0.00 0.00 0.00 78 1017.0
20260506081146 8 199 1.6 1.6 0.00 0.00 0.00 80 1017.0
20260506080644 8 193 1.6 1.6 0.00 0.00 0.00 79 1017.1
20260506080140 10 231 3.2 3.2 0.00 0.00 0.00 77 1017.0
20260506073125 11 224 9.7 14.5 0.00 0.00 0.00 65 1016.7
20260506072620 11 235 14.5 17.7 0.00 0.00 0.00 67 1016.4
20260506072119 11 210 16.1 20.9 0.00 0.00 0.00 69 1016.3
20260506071617 11 197 9.7 12.9 0.00 0.00 0.00 70 1016.2
20260506071114 10 208 4.8 6.4 0.00 0.00 0.00 71 1016.4
20260506070611 10 189 8.0 11.3 0.00 0.00 0.00 72 1016.1
20260506070108 10 170 8.0 14.5 0.00 0.00 0.00 73 1016.4
20260506062045 10 183 4.8 6.4 0.00 1.19 1.19 73 1016.5
20260506061540 10 143 3.2 3.2 0.00 1.19 1.19 76 1016.5
20260506061038 10 152 3.2 4.8 0.00 1.19 1.19 77 1016.7
20260506060537 10 210 3.2 3.2 0.00 1.19 1.19 78 1016.4
20260506051005 12 146 16.1 17.7 0.00 0.76 0.76 65 1015.7
20260506050503 13 119 9.7 11.3 0.00 0.76 0.76 64 1015.5
20260506044953 12 165 3.2 4.8 0.00 0.76 0.76 65 1015.0
20260506044452 12 154 3.2 3.2 0.00 0.76 0.76 66 1015.2
20260506043948 12 131 3.2 3.2 0.00 0.76 0.76 64 1015.0
20260506043445 12 179 6.4 6.4 0.00 0.76 0.76 64 1014.9
20260506042943 12 213 4.8 6.4 0.00 0.76 0.76 64 1014.9
20260506042442 12 199 1.6 3.2 0.00 0.76 0.76 64 1014.7
20260506041940 12 162 0.0 1.6 0.00 0.76 0.76 67 1014.4
20260506041438 12 164 1.6 3.2 0.00 0.76 0.76 69 1014.5
20260506040935 12 138 4.8 4.8 0.00 0.76 0.76 68 1014.5
20260506040432 13 159 3.2 3.2 0.00 0.76 0.76 65 1014.5
20260506035928 13 179 1.6 3.2 0.00 0.76 0.76 63 1014.5
20260506035426 13 167 0.0 1.6 0.00 0.76 0.76 63 1014.5
20260506034922 13 167 3.2 3.2 0.00 0.76 0.76 64 1014.5
20260506034420 13 161 6.4 9.7 0.00 0.76 0.76 63 1014.6
20260506033916 13 182 1.6 3.2 0.00 0.76 0.76 63 1014.5
20260506033414 13 165 1.6 1.6 0.00 0.76 0.76 62 1014.2
20260506032911 13 190 3.2 4.8 0.00 0.76 0.76 61 1014.4
20260506032407 13 188 3.2 3.2 0.00 0.76 0.76 61 1014.2
20260506031904 13 193 1.6 3.2 0.00 0.76 0.76 61 1014.0
20260506031401 13 175 4.8 4.8 0.00 0.76 0.76 60 1013.9
20260506030859 13 170 6.4 6.4 0.00 0.76 0.76 60 1013.9
20260506030357 13 185 4.8 6.4 0.00 0.76 0.76 61 1014.1
20260506025853 13 181 0.0 1.6 0.00 0.76 0.76 62 1013.9
20260506025350 13 184 0.0 1.6 0.00 0.76 0.76 62 1014.0
20260506024847 13 196 1.6 3.2 0.00 0.76 0.76 62 1013.9
20260506024344 14 157 3.2 3.2 0.00 0.76 0.76 62 1013.5
20260506023840 14 166 3.2 3.2 0.00 0.76 0.76 60 1013.4
20260506023337 15 181 1.6 1.6 0.00 0.76 0.76 58 1013.7
20260506022834 15 189 1.6 3.2 0.00 0.76 0.76 54 1013.7
20260506022332 16 192 1.6 1.6 0.00 0.76 0.76 53 1013.7
20260506021830 16 210 4.8 6.4 0.00 0.76 0.76 51 1013.7
20260506021326 16 178 3.2 3.2 0.00 0.76 0.76 51 1013.8
20260506020823 16 162 3.2 3.2 0.00 0.76 0.76 51 1013.8
20260506020321 16 178 0.0 0.0 0.00 0.76 0.76 51 1013.5
20260506015818 16 200 1.6 1.6 0.00 0.76 0.76 51 1013.5
20260506015316 16 203 3.2 3.2 0.00 0.76 0.76 51 1013.5
20260506014812 16 192 3.2 3.2 0.00 0.76 0.76 50 1013.5
20260506014309 16 161 1.6 3.2 0.00 0.76 0.76 50 1013.5
20260506013806 16 155 4.8 6.4 0.00 0.76 0.76 47 1013.4
20260506013303 16 153 8.0 9.7 0.00 0.76 0.76 48 1013.5
20260506012759 16 149 9.7 11.3 0.00 0.76 0.76 48 1013.5
20260506012256 16 140 6.4 9.7 0.00 0.76 0.76 49 1013.5
20260506011754 16 198 6.4 6.4 0.00 0.76 0.76 49 1013.7
20260506011250 16 210 4.8 6.4 0.00 0.76 0.76 48 1013.8
20260506010748 16 165 6.4 9.7 0.00 0.76 0.76 48 1013.8